Wind_Speed
14 14 14 14 13 13 12 11 10 10 11 11 11 11 10 10 10 10 10 10 9 9 9 9 8 8 8 8 7 7 7 7 7 8 7 8 8 7 7 6 6 6 6
15 15 15 14 14 14 13 12 12 11 11 11 11 12 11 11 11 11 10 11 11 10 10 10 10 10 10 10 9 9 8 8 8 9 9 9 9 9 8 8 7 7 7
16 16 16 16 15 15 15 14 13 13 13 13 12 12 12 12 12 12 12 12 12 11 11 11 11 12 11 11 11 10 9 9 9 10 10 10 10 10 10 10 9 9 9
16 17 17 17 17 16 16 15 14 14 14 14 14 13 13 13 13 13 13 13 13 12 12 12 12 12 12 12 12 11 11 10 10 10 11 11 11 11 11 11 11 11 10
17 18 18 18 18 18 18 17 16 15 15 15 15 15 14 14 13 14 14 13 14 14 13 13 13 13 13 13 13 13 13 12 12 12 12 12 13 13 13 13 13 13 12
18 18 19 19 19 19 19 18 18 17 17 16 16 16 16 15 15 15 15 15 14 15 15 14 14 14 14 14 14 14 14 14 13 14 14 14 14 15 14 14 14 14 14
19 19 19 20 20 20 20 20 20 19 19 18 18 18 18 18 17 17 16 16 16 16 16 16 16 15 15 15 15 15 15 15 15 15 15 15 15 16 16 16 16 16 16
20 20 21 21 21 21 21 21 21 21 20 20 20 20 19 19 19 19 18 18 17 17 17 17 17 17 17 17 17 16 16 16 16 16 16 16 16 17 17 17 18 17 17
22 22 22 22 22 22 22 22 22 22 22 22 21 21 21 21 20 20 20 20 19 18 18 19 18 18 18 18 18 18 17 17 18 17 17 17 17 18 18 18 18 18 19
22 22 23 23 23 23 23 24 24 24 24 24 23 23 24 23 23 23 22 22 22 21 20 20 20 19 19 20 20 20 19 19 19 19 19 19 19 19 19 19 19 20 20
22 23 23 24 24 25 25 25 26 26 26 26 26 26 26 26 25 25 25 24 24 23 23 22 22 21 21 21 22 22 21 21 21 21 21 21 21 21 21 21 21 21 22
24 24 25 25 25 26 27 27 27 28 28 28 28 28 28 28 28 27 27 27 26 26 25 25 24 24 24 23 23 24 23 23 23 23 22 23 23 23 23 23 23 23 23
25 26 26 27 28 28 28 29 29 30 30 30 30 30 30 30 30 29 29 29 28 28 27 27 27 27 27 26 26 26 25 24 24 24 24 24 24 24 24 24 25 25 25
27 27 28 29 29 29 29 30 30 31 31 32 32 32 32 32 31 31 31 31 30 30 30 29 29 29 29 29 29 28 28 27 26 26 27 26 26 26 26 26 26 26 27
28 29 30 30 31 31 31 31 32 32 33 34 34 34 34 34 33 32 32 33 33 32 32 32 31 31 31 32 31 31 31 31 30 29 29 29 29 29 29 29 28 28 28
30 30 31 31 32 33 33 33 33 34 35 35 36 36 36 36 36 35 34 34 35 34 34 33 33 33 33 33 33 33 33 33 33 33 33 32 32 32 32 32 31 31 31
31 32 32 33 33 34 34 35 35 35 36 37 37 38 38 38 39 38 37 36 37 37 36 36 36 35 35 35 35 35 35 35 36 36 36 36 35 35 35 35 34 34 34
33 33 33 34 35 35 36 36 37 37 37 38 39 39 40 40 40 39 38 38 39 39 39 39 39 38 38 38 38 38 38 38 38 38 38 38 38 37 37 37 37 37 36
34 35 35 35 36 37 38 38 39 39 39 40 40 41 41 42 42 42 41 41 42 42 42 42 42 42 41 41 41 41 41 41 41 41 41 41 40 40 40 40 39 39 39
36 37 37 37 38 39 39 39 40 40 41 41 41 42 43 45 45 45 44 44 44 45 45 45 45 45 45 44 44 44 44 44 45 45 44 44 44 44 43 43 43 42 42
37 37 38 39 40 40 40 40 41 41 42 43 43 45 46 46 47 48 47 46 46 47 48 48 48 48 48 48 48 48 47 47 47 47 47 48 47 47 47 47 47 46 46
37 38 39 40 40 41 41 41 42 43 44 45 46 47 47 48 48 49 49 49 49 50 50 50 51 51 51 51 51 52 51 51 50 50 50 50 51 51 51 51 51 51 51
36 38 39 40 40 41 42 43 43 44 45 46 47 48 49 49 50 51 52 52 52 52 52 52 53 54 53 53 53 54 54 54 53 53 53 54 54 54 54 54 54 54 54
37 37 39 40 40 41 42 43 44 45 46 48 48 49 50 50 51 53 54 54 54 54 54 54 55 55 56 55 55 56 57 57 57 56 56 56 56 56 56 56 57 57 56
37 37 38 39 40 42 43 44 44 45 47 48 49 50 51 51 52 54 55 55 56 56 55 55 56 57 57 57 57 58 59 59 60 59 58 58 58 59 58 58 58 59 59
37 38 38 39 40 42 44 45 45 46 47 48 49 51 52 52 54 54 55 56 56 56 55 56 56 57 58 59 59 60 61 61 61 62 61 61 61 60 61 61 61 61 61
Wind_Direction
248 247 246 247 248 247 245 245 247 248 243 240 239 238 238 236 238 240 240 237 237 236 235 236 239 241 238 236 235 235 234 232 229 232 234 234 233 231 231 230 230 231 231
248 248 247 247 249 250 248 247 248 249 247 244 242 239 237 239 240 241 243 241 240 241 241 241 243 245 244 241 240 241 242 239 236 235 235 236 236 234 235 237 236 235 237
249 249 248 248 249 250 250 247 247 249 249 248 246 242 240 240 241 241 243 243 242 243 245 245 246 246 245 243 243 243 244 244 241 239 239 238 239 238 238 239 239 239 241
251 251 251 250 250 249 249 248 248 248 250 251 250 248 245 243 244 244 246 245 245 244 245 246 248 248 247 245 245 244 245 245 243 242 241 241 241 241 242 242 243 243 244
253 253 252 251 250 248 248 248 248 248 249 250 250 251 250 248 248 247 247 249 247 246 247 247 248 249 250 249 247 246 246 247 246 246 247 246 244 244 244 246 248 248 247
255 255 255 253 250 249 248 248 248 248 248 248 248 249 251 251 251 251 252 252 251 250 249 249 251 250 249 249 249 248 248 248 249 250 250 249 249 248 247 248 250 250 250
256 256 255 254 252 251 251 249 249 249 250 250 250 250 251 252 253 253 255 255 254 252 251 250 250 250 248 249 249 250 250 250 251 253 251 250 250 249 249 250 252 251 252
258 258 257 255 254 253 253 251 251 251 251 251 251 251 252 254 254 253 254 254 254 253 252 251 251 252 251 251 250 249 250 251 253 253 253 252 252 252 251 252 252 252 252
258 258 258 257 256 256 254 254 252 252 252 252 252 252 253 255 256 254 253 253 253 253 253 252 251 251 252 252 253 252 252 253 254 255 254 254 254 253 253 254 254 253 252
259 259 259 258 257 257 256 256 255 254 253 252 253 254 254 256 257 255 254 253 252 252 252 252 251 251 252 254 253 254 255 255 256 257 256 256 255 255 254 255 255 254 254
260 261 259 258 258 258 257 257 256 256 256 254 254 254 255 257 258 255 254 253 253 252 252 253 253 254 255 256 256 256 257 257 257 258 257 257 257 257 256 256 256 255 253
262 262 260 259 259 259 259 258 258 257 257 257 256 257 257 258 258 256 254 253 253 253 253 254 254 255 256 257 257 257 258 258 258 258 258 258 258 258 258 256 256 255 254
263 264 263 261 260 260 260 260 259 258 258 258 258 258 258 259 258 256 254 253 253 254 254 254 255 255 256 257 257 257 256 256 256 256 257 256 257 258 259 258 256 256 254
264 264 264 262 261 260 261 260 260 260 259 259 259 259 259 259 258 256 255 254 253 254 255 255 255 255 256 256 256 256 256 256 256 256 257 257 258 259 259 259 258 258 256
265 265 264 263 262 261 261 261 261 260 260 260 259 260 260 258 258 256 256 254 253 253 254 256 256 256 256 257 257 256 256 256 257 258 259 258 259 259 259 258 258 257 256
265 266 265 264 263 263 262 262 262 262 261 260 259 259 259 258 258 258 256 256 254 254 254 256 257 257 258 258 258 259 258 258 258 258 259 259 260 259 258 258 258 257 257
266 266 266 264 263 263 263 263 263 263 262 261 260 260 260 260 259 259 258 256 255 254 255 256 257 258 259 259 259 259 259 259 259 259 260 260 260 260 258 258 257 257 257
266 266 266 266 265 265 265 264 264 263 263 262 261 260 260 260 260 259 259 258 256 255 256 257 258 259 260 261 261 260 260 260 260 260 260 260 260 260 259 258 258 256 257
266 266 266 266 266 266 266 265 265 264 264 263 261 260 261 260 260 260 260 259 258 256 257 258 259 260 261 261 262 262 261 261 260 260 260 261 260 259 258 258 258 257 256
266 266 265 266 266 267 267 266 266 265 264 262 261 260 261 261 262 262 261 261 259 258 258 259 259 260 261 262 262 262 262 262 262 261 261 261 261 260 259 258 258 258 257
267 266 265 264 266 267 267 267 266 265 265 263 263 262 262 262 262 262 262 261 261 259 259 260 261 261 261 262 262 262 262 262 262 262 262 262 261 260 259 259 259 258 258
268 267 266 266 266 267 267 268 267 266 265 265 264 264 263 262 263 262 263 262 262 261 260 261 262 263 262 262 262 262 261 261 261 262 262 262 262 262 261 260 259 259 259
270 269 268 267 267 267 269 269 269 268 266 266 265 265 265 264 263 263 264 265 263 262 262 262 262 263 263 263 263 263 263 263 262 263 264 264 263 263 262 261 260 260 259
272 271 270 268 268 269 269 270 270 269 267 266 266 266 265 265 264 264 264 265 264 264 263 263 263 263 263 263 263 264 265 265 264 264 265 265 264 263 262 261 260 260 259
273 273 273 271 270 269 270 271 271 270 269 268 267 267 267 266 265 265 265 266 265 264 264 263 264 264 264 264 265 265 265 266 266 266 266 265 264 263 263 262 262 261 260
273 273 273 273 272 271 271 272 272 271 271 270 269 268 268 267 266 266 266 266 265 265 265 265 264 265 265 265 266 266 266 266 267 267 267 265 264 263 263 262 262 262 261
Height
5841 5841 5841 5841 5841 5841 5841 5842 5842 5842 5842 5843 5843 5843 5843 5844 5844 5845 5845 5845 5845 5846 5846 5846 5847 5847 5847 5847 5847 5848 5848 5848 5848 5848 5849 5849 5849 5850 5850 5850 5851 5851 5851
5838 5838 5838 5838 5839 5839 5839 5840 5840 5840 5840 5841 5841 5841 5841 5842 5842 5842 5843 5843 5844 5844 5844 5845 5845 5845 5845 5845 5846 5846 5846 5847 5847 5847 5847 5848 5848 5848 5849 5849 5849 5850 5850
5834 5835 5835 5835 5836 5836 5837 5837 5837 5838 5838 5838 5839 5839 5839 5840 5840 5840 5840 5841 5841 5842 5842 5843 5843 5843 5843 5843 5844 5844 5845 5845 5845 5845 5846 5846 5846 5847 5847 5848 5848 5848 5849
5831 5831 5832 5832 5833 5833 5834 5834 5834 5835 5835 5836 5836 5837 5837 5837 5837 5838 5838 5838 5839 5839 5840 5840 5840 5841 5841 5841 5842 5842 5843 5843 5843 5844 5844 5844 5844 5845 5845 5846 5846 5846 5847
5828 5828 5828 5828 5829 5830 5830 5830 5831 5832 5832 5833 5833 5834 5834 5835 5835 5835 5835 5836 5836 5836 5837 5837 5838 5838 5838 5839 5839 5840 5840 5840 5841 5841 5842 5842 5842 5842 5843 5843 5844 5844 5845
5824 5824 5824 5824 5825 5825 5826 5827 5827 5828 5829 5830 5830 5831 5831 5831 5832 5832 5832 5833 5833 5833 5834 5834 5835 5835 5836 5836 5837 5837 5837 5838 5838 5838 5839 5839 5840 5840 5840 5841 5841 5842 5842
5820 5820 5820 5820 5820 5821 5822 5823 5824 5824 5825 5826 5827 5827 5828 5828 5828 5829 5829 5830 5830 5830 5831 5831 5831 5832 5832 5833 5833 5834 5834 5835 5835 5835 5836 5836 5837 5837 5838 5838 5838 5839 5839
5815 5815 5815 5815 5816 5817 5817 5818 5819 5820 5821 5822 5823 5823 5824 5824 5825 5825 5826 5826 5826 5827 5827 5828 5828 5829 5829 5830 5830 5831 5831 5832 5832 5832 5833 5833 5833 5834 5834 5835 5835 5835 5836
5810 5810 5810 5810 5811 5812 5813 5814 5815 5816 5816 5817 5818 5819 5819 5820 5820 5821 5821 5822 5822 5823 5823 5824 5824 5825 5825 5826 5826 5827 5827 5828 5828 5829 5829 5829 5830 5830 5831 5831 5831 5832 5832
5805 5805 5805 5805 5806 5807 5808 5808 5809 5810 5811 5812 5813 5814 5814 5815 5815 5816 5816 5817 5818 5818 5819 5820 5820 5821 5821 5822 5822 5823 5823 5824 5824 5825 5825 5826 5826 5826 5827 5827 5828 5828 5829
5799 5799 5799 5800 5800 5801 5802 5803 5804 5804 5805 5806 5807 5808 5809 5809 5810 5810 5811 5812 5812 5813 5814 5815 5816 5816 5817 5817 5818 5818 5819 5819 5820 5820 5821 5821 5822 5822 5823 5823 5823 5824 5824
5794 5794 5794 5794 5795 5795 5796 5797 5798 5798 5799 5800 5801 5801 5802 5803 5803 5804 5805 5806 5807 5808 5809 5810 5810 5811 5812 5812 5813 5813 5814 5814 5815 5815 5816 5816 5817 5817 5818 5818 5819 5819 5820
5787 5787 5787 5788 5788 5789 5790 5790 5791 5792 5792 5793 5794 5795 5795 5796 5797 5798 5798 5799 5800 5802 5803 5803 5804 5805 5806 5806 5807 5808 5808 5809 5809 5810 5810 5811 5811 5812 5812 5813 5813 5814 5814
5781 5781 5781 5781 5782 5782 5783 5784 5784 5785 5785 5786 5787 5788 5788 5789 5789 5790 5791 5792 5794 5795 5796 5797 5798 5798 5799 5800 5801 5801 5802 5803 5803 5804 5804 5805 5805 5806 5806 5807 5808 5808 5809
5774 5774 5774 5774 5774 5775 5775 5776 5777 5777 5778 5778 5779 5780 5780 5781 5782 5782 5783 5785 5786 5788 5789 5790 5790 5791 5792 5793 5793 5794 5795 5796 5796 5797 5798 5798 5799 5799 5800 5800 5801 5801 5802
5767 5767 5767 5767 5767 5767 5768 5768 5768 5769 5769 5770 5771 5771 5772 5772 5773 5774 5775 5776 5778 5779 5780 5781 5782 5783 5784 5785 5786 5786 5787 5788 5789 5789 5790 5791 5791 5792 5793 5793 5794 5795 5795
5759 5759 5759 5759 5759 5759 5759 5760 5760 5760 5760 5761 5762 5762 5762 5763 5764 5765 5766 5767 5769 5770 5771 5772 5774 5775 5775 5776 5777 5778 5779 5779 5780 5781 5782 5782 5783 5784 5784 5785 5786 5787 5788
5751 5751 5750 5750 5750 5750 5751 5751 5751 5751 5751 5751 5752 5752 5752 5753 5754 5755 5756 5757 5759 5760 5761 5763 5764 5765 5766 5767 5768 5769 5769 5770 5771 5772 5772 5773 5774 5774 5775 5776 5777 5778 5779
5742 5741 5741 5741 5741 5741 5741 5741 5741 5741 5741 5741 5741 5741 5742 5742 5743 5744 5745 5747 5748 5749 5751 5752 5754 5755 5756 5757 5758 5758 5759 5760 5761 5762 5762 5763 5764 5765 5766 5767 5767 5768 5770
5732 5732 5732 5732 5732 5731 5731 5731 5731 5730 5730 5730 5730 5730 5730 5731 5731 5733 5734 5735 5736 5738 5739 5741 5742 5744 5745 5745 5746 5747 5748 5749 5750 5751 5751 5752 5753 5754 5754 5756 5757 5758 5759
5722 5722 5722 5722 5721 5721 5721 5720 5720 5719 5719 5719 5719 5719 5719 5719 5719 5720 5721 5722 5723 5725 5727 5728 5730 5731 5732 5733 5734 5735 5736 5737 5738 5738 5739 5740 5741 5741 5742 5743 5745 5746 5747
5712 5712 5711 5711 5711 5710 5709 5709 5708 5708 5707 5707 5707 5707 5706 5707 5707 5708 5708 5709 5710 5712 5713 5715 5717 5718 5719 5720 5721 5722 5723 5725 5725 5726 5726 5727 5727 5728 5729 5730 5732 5733 5734
5702 5701 5701 5700 5700 5699 5698 5697 5696 5696 5695 5695 5694 5694 5694 5694 5694 5694 5695 5696 5697 5698 5699 5701 5702 5704 5705 5705 5706 5707 5708 5710 5711 5713 5712 5713 5713 5714 5715 5716 5717 5718 5720
5692 5691 5690 5689 5688 5687 5686 5685 5684 5683 5683 5682 5681 5681 5681 5680 5681 5681 5681 5681 5682 5683 5684 5686 5687 5688 5689 5690 5691 5691 5693 5693 5695 5697 5698 5697 5697 5698 5699 5700 5701 5703 5704
5681 5680 5679 5678 5677 5676 5674 5673 5672 5671 5669 5668 5667 5667 5666 5666 5666 5666 5667 5667 5667 5668 5669 5670 5671 5672 5673 5674 5674 5675 5676 5676 5677 5679 5682 5682 5682 5682 5682 5683 5684 5686 5687
5671 5670 5669 5667 5666 5664 5662 5661 5659 5658 5656 5655 5654 5653 5652 5652 5651 5651 5652 5652 5652 5652 5653 5654 5655 5655 5656 5657 5657 5658 5658 5659 5660 5660 5662 5664 5665 5666 5665 5666 5667 5668 5669